Miscellaneous Local Product
Issued by NWS North Platte, NE

Home | Current Version | Previous Version | Text Only | Print | Product List | Glossary On
Versions: 1 2 3 4 5 6 7 8 9 10 11 12 13 14 15 16 17 18 19 20 21 22 23 24 25 26 27 28 29 30 31 32 33 34 35 36 37 38 39 40 41 42 43 44 45 46 47 48 49 50
920
AXUS43 KLBF 241110
MISLBF


WESTERN AND NORTH CENTRAL NEBRASKA HOURLY WEATHER ROUNDUP
NATIONAL WEATHER SERVICE NORTH PLATTE NE
600 AM CDT MON APR 24 2017

NOTE: "FAIR" INDICATES FEW OR NO CLOUDS BELOW 12,000 FEET WITH NO
SIGNIFICANT WEATHER AND/OR OBSTRUCTIONS TO VISIBILITY.

NOTE: STATIONS NOT REPORTING VARIABLES SUCH AS SKY/WEATHER OR
PRESSURE ARE PROVIDED BY RAWS AND APRS NETWORKS AND ARE NOT UNDER
NATIONAL WEATHER SERVICE QUALITY CONTROL.

...OBSERVATIONS IN AND NEAR THE EASTERN PANHANDLE OF NEBRASKA...

CITY           SKY/WX    TMP DP  RH WIND       PRES   REMARKS
PINE RIDGE     CLOUDY    42  40  92 CALM      29.55S
CHADRON        PTCLDY    41  39  93 W10       29.56F
ALLIANCE       PTCLDY    43  39  86 W8        29.57S
SIDNEY         CLOUDY    52  39  61 NW22      29.61R
CRESCENT LAKE    N/A     46  38  75 NW5         N/A
$$

...OBSERVATIONS IN NORTHERN NEBRASKA AND FAR SOUTHERN SOUTH DAKOTA...

CITY           SKY/WX    TMP DP  RH WIND       PRES   REMARKS
WINNER         FAIR      56  37  49 S17G24    29.52F
VALENTINE      CLOUDY    53  33  46 S9        29.53F
THEDFORD       MOCLDY    50  37  60 S6        29.56F
AINSWORTH      CLOUDY    51  38  61 S14       29.55F
O`NEILL        CLOUDY    53  34  47 S16       29.60F
ORD            MOCLDY    52  33  48 S13       29.61F
BROKEN BOW     CLOUDY    51  34  52 S15G25    29.57F
VALENTINE NWR    N/A     52  34  50 S9G20       N/A
HALSEY           N/A     50  34  54 S9G18       N/A
BUTTE            N/A     53  37  54 N15G29      N/A
CHAMBERS         N/A     51  33  51 S8          N/A
EWING            N/A     51  37  59 S7          N/A
$$

...OBSERVATIONS IN SOUTHWEST NEBRASKA AND FAR NORTHEAST COLORADO...

CITY           SKY/WX    TMP DP  RH WIND       PRES   REMARKS
HOLYOKE        FAIR      45  39  81 NW5       29.55F
IMPERIAL       PTCLDY    41  36  82 NE3       29.53R
OGALLALA       CLOUDY    43  33  69 CALM      29.55R
NORTH PLATTE   CLOUDY    49  36  61 SE10      29.55S
MCCOOK         CLOUDY    51  36  56 S10       29.53F
LEXINGTON      CLOUDY    51  34  52 SE18      29.57F
STAPLETON        N/A     48  36  64 CALM        N/A
GOTHENBURG       N/A     50  33  51 SE8         N/A
CALLAWAY         N/A     49  37  62 S17         N/A
$$

...OBSERVATIONS IN CENTRAL LINCOLN COUNTY AREA...

CITY           SKY/WX    TMP DP  RH WIND       PRES   REMARKS
N.P. AIRPORT   CLOUDY    49  36  61 SE10      29.55S
N.P. DOWNTOWN    N/A     49  36  61 SE3         N/A
N.P. SOUTHEAST   N/A     48  35  61 SE3         N/A
N.P. HILLCREST   N/A     48  36  63 SE9         N/A
$$

...SOME OBSERVATIONS FROM AROUND THE REGION...

CITY           SKY/WX    TMP DP  RH WIND       PRES   REMARKS
DENVER         CLOUDY    48  37  65 E9        29.68S
LIMON          CLOUDY    50  37  61 N18       29.68R
ASPEN          CLOUDY    40  37  89 S5        29.85S
LARAMIE        CLOUDY    36  33  89 W13       29.74F WCI  27
CASPER         CLOUDY    35  32  88 W6        29.72S WCI  30
CHEYENNE       CLOUDY    44  35  70 NW13G21   29.71R
SCOTTSBLUFF    CLOUDY    52  39  61 W7        29.61F
GRAND ISLAND   CLOUDY    51  35  54 S20G31    29.65F
OMAHA          CLOUDY    54  36  50 S21       29.78F
SIOUX FALLS    CLOUDY    54  36  50 S16G29    29.66F
PIERRE         CLOUDY    39  36  89 NE6       29.49F WCI  35
RAPID CITY     CLOUDY    38  37  97 N15       29.59S WCI  29
BISMARCK       CLOUDY    33  32  96 NE15      29.64F WCI  23
KANSAS CITY    CLOUDY    41  37  86 S10       29.90F
HILL CITY      CLOUDY    53  37  54 S30G41    29.58F
WICHITA        CLOUDY    46  40  79 S12       29.85F
DODGE CITY     CLOUDY    49  36  61 S23       29.71F
OKLAHOMA CITY  PTCLDY    44  39  82 S7        29.92S
DALLAS         PTCLDY    53  44  71 SW8       29.94R
AMARILLO       CLEAR     51  33  50 S18       29.82F
$$




USA.gov is the U.S. government's official web portal to all federal, state and local government web resources and services.